闪电 1-87星 (MOLNIYA 1-87)

导读

MOLNIYA 1-87(闪电1-87)是独联体(CIS)于1993年12月22日发射的通信卫星,隶属于苏联/俄罗斯经典的“闪电”(Molniya)系列。它运行在专为高纬度设计的闪电型高椭圆轨道,轨道周期约12小时,能在北半球高纬度区域长时间驻留,主要承担军事通信与广播电视传输任务,具备抗干扰特性,是当时俄罗斯空间通信体系的重要组成部分。

基本信息
目录编号:
22949
目录名称:
MOLNIYA 1-87
国际标识:
1993-079A
轨道中心:
EARTH
卫星名称:
闪电 1-87星
卫星全名:
闪电 1-87星 (MOLNIYA 1-87)
卫星状态:
在轨 (已飞行11861 天)
发射日期:
1993-12-22 UTC
国别 :
俄罗斯(独联体) (CIS)
星等 :
--
轨道信息
数据来源 国际轨道数据
星历时间: 2026-06-05T15:26:16+0800
轨道信息已过期7天
半长轴: 26358.641km
偏心率: 0.6789728
轨道倾角: 64.892°
近地点辐角 269.461°
升交点赤经 284.486°
平近点角 18.966°
近地点: 2083.703km
远地点: 37877.305km
周期: 709.813分钟
每日圈数: 2.028702
详细信息
平衡模式:
三轴稳定
覆盖范围:
全球
运营商:
俄罗斯国家航天集团
运营商所在国:
俄罗斯
制造商(研发单位):
普里克拉德诺伊·梅哈尼基设计局
制造商所在国:
俄罗斯联邦
使用方式:
暂无
卫星简介
闪电(Molniya (Satellite))系列卫星是苏联/俄罗斯于1965年至2004年间发射的军事和通信卫星。这些卫星使用高度偏心的椭圆轨道,称为Molniya轨道(即闪电轨道),在高纬度地区具有较长的停留时间。该卫星状态未知。
2D轨道图
3D轨道图
轨道高度分析图
轨道倾角分析图
轨道综合分析图
查看轨道综合分析图